TimeMSK,TemperatureF,Dew PointF,Humidity,Sea Level PressureIn,VisibilityMPH,Wind Direction,Wind SpeedMPH,Gust SpeedMPH,PrecipitationIn,Events,Conditions,WindDirDegrees,DateUTC
1:00 AM,66,64,90,30.04,6,Calm,Calm,,,,Clear,,2013-06-24 21:00:00
1:30 AM,68.0,66.2,94,30.04,-9999.0,Calm,Calm,-,N/A,Fog,Scattered Clouds,0,2013-06-24 21:30:00
2:00 AM,68.0,66.2,94,30.04,1.4,Variable,2.2,-,N/A,Fog,Mostly Cloudy,0,2013-06-24 22:00:00
2:30 AM,66.2,64.4,94,30.04,3.1,Variable,4.5,-,N/A,Fog,Mostly Cloudy,0,2013-06-24 22:30:00
3:00 AM,64.4,60.8,88,30.06,-9999.0,Variable,4.5,-,N/A,,Clear,0,2013-06-24 23:00:00
4:00 AM,64,61,87,30.05,12,Calm,Calm,,,,Clear,,2013-06-25 00:00:00
4:00 AM,64.4,62.6,94,30.04,-9999.0,Variable,2.2,-,N/A,,Clear,0,2013-06-25 00:00:00
5:00 AM,68.0,64.4,88,30.06,-9999.0,Variable,4.5,-,N/A,,Clear,0,2013-06-25 01:00:00
5:30 AM,69.8,64.4,83,30.06,-9999.0,Variable,4.5,-,N/A,,Clear,0,2013-06-25 01:30:00
6:00 AM,71.6,62.6,73,30.06,-9999.0,SW,6.7,-,N/A,,Clear,230,2013-06-25 02:00:00
6:30 AM,71.6,62.6,73,30.06,-9999.0,Variable,4.5,-,N/A,,Clear,0,2013-06-25 02:30:00
7:00 AM,74,64,63,30.06,12,South,2.2,,,,Clear,190,2013-06-25 03:00:00
7:00 AM,71.6,64.4,78,30.06,-9999.0,South,4.5,-,N/A,,Clear,190,2013-06-25 03:00:00
7:30 AM,73.4,64.4,73,30.06,-9999.0,SSW,4.5,-,N/A,,Clear,200,2013-06-25 03:30:00
8:00 AM,77.0,64.4,65,30.06,-9999.0,Variable,4.5,-,N/A,,Clear,0,2013-06-25 04:00:00
8:30 AM,78.8,64.4,61,30.06,-9999.0,Variable,4.5,-,N/A,,Clear,0,2013-06-25 04:30:00
9:00 AM,80.6,64.4,58,30.06,-9999.0,Variable,2.2,-,N/A,,Clear,0,2013-06-25 05:00:00
9:30 AM,84.2,64.4,51,30.06,-9999.0,Variable,2.2,-,N/A,,Clear,0,2013-06-25 05:30:00
10:00 AM,86,64,38,30.04,12,Calm,Calm,,,,Clear,,2013-06-25 06:00:00
10:00 AM,86.0,64.4,48,30.06,-9999.0,Variable,4.5,-,N/A,,Clear,0,2013-06-25 06:00:00
10:30 AM,86.0,66.2,51,30.06,-9999.0,SSE,4.5,-,N/A,,Clear,150,2013-06-25 06:30:00
11:00 AM,87.8,66.2,49,30.06,-9999.0,Variable,4.5,-,N/A,,Clear,0,2013-06-25 07:00:00
11:30 AM,89.6,60.8,38,30.06,6.2,Variable,2.2,-,N/A,,Partly Cloudy,0,2013-06-25 07:30:00
12:00 PM,89.6,57.2,33,30.06,6.2,NNE,4.5,-,N/A,,Partly Cloudy,30,2013-06-25 08:00:00
12:30 PM,89.6,57.2,33,30.04,6.2,Variable,2.2,-,N/A,,Partly Cloudy,0,2013-06-25 08:30:00
1:00 PM,90,59,25,30.02,12,SSW,2.2,,,,Overcast,200,2013-06-25 09:00:00
1:00 PM,89.6,59.0,36,30.04,6.2,SSE,4.5,-,N/A,,Partly Cloudy,160,2013-06-25 09:00:00
1:30 PM,89.6,60.8,38,30.04,6.2,ESE,4.5,-,N/A,,Partly Cloudy,120,2013-06-25 09:30:00
2:00 PM,91.4,57.2,31,30.04,5.6,Variable,4.5,-,N/A,,Scattered Clouds,0,2013-06-25 10:00:00
2:30 PM,91.4,57.2,31,30.04,6.2,Calm,Calm,-,N/A,,Mostly Cloudy,0,2013-06-25 10:30:00
3:00 PM,91.4,57.2,31,30.01,5.6,NE,8.9,17.9,N/A,,Mostly Cloudy,40,2013-06-25 11:00:00
3:30 PM,93.2,55.4,28,30.01,6.2,Variable,2.2,-,N/A,,Mostly Cloudy,0,2013-06-25 11:30:00
4:00 PM,92,61,26,29.99,12,WNW,4.5,,,,Overcast,300,2013-06-25 12:00:00
4:00 PM,91.4,57.2,31,30.01,6.2,West,4.5,-,N/A,,Mostly Cloudy,270,2013-06-25 12:00:00
4:30 PM,89.6,53.6,29,30.01,5.6,West,6.7,-,N/A,,Overcast,280,2013-06-25 12:30:00
5:00 PM,89.6,57.2,33,30.01,6.2,Variable,4.5,11.2,N/A,,Overcast,0,2013-06-25 13:00:00
5:30 PM,87.8,60.8,40,30.01,6.2,SW,4.5,-,N/A,,Overcast,230,2013-06-25 13:30:00
6:00 PM,87.8,60.8,40,30.01,6.2,Variable,4.5,-,N/A,,Overcast,0,2013-06-25 14:00:00
6:30 PM,86.0,62.6,45,30.01,6.2,Variable,4.5,-,N/A,,Overcast,0,2013-06-25 14:30:00
7:00 PM,87,65,38,29.99,12,SSW,2.2,,,,Partly Cloudy,210,2013-06-25 15:00:00
7:00 PM,84.2,68.0,58,30.01,6.2,SSW,6.7,-,N/A,,Overcast,200,2013-06-25 15:00:00
7:30 PM,80.6,64.4,58,30.01,6.2,SSW,8.9,-,N/A,Thunderstorm,Overcast,200,2013-06-25 15:30:00
8:00 PM,78.8,62.6,57,30.04,6.2,SSW,8.9,-,N/A,Thunderstorm,Thunderstorm,210,2013-06-25 16:00:00
8:30 PM,77.0,53.6,44,30.01,6.2,SW,13.4,22.4,N/A,Rain-Thunderstorm,Light Thunderstorms and Rain,230,2013-06-25 16:30:00
9:00 PM,75.2,60.8,61,30.06,6.2,ESE,8.9,15.7,N/A,Thunderstorm,Overcast,110,2013-06-25 17:00:00
9:30 PM,73.4,60.8,65,30.04,6.2,SE,8.9,-,N/A,Thunderstorm,Overcast,130,2013-06-25 17:30:00
10:00 PM,73,62,59,30.03,12,South,6.7,,,Thunderstorm,Thunderstorm,170,2013-06-25 18:00:00
10:00 PM,71.6,62.6,73,30.04,6.2,SSE,8.9,-,N/A,,Overcast,150,2013-06-25 18:00:00
10:30 PM,69.8,64.4,83,30.04,6.2,SSW,6.7,-,N/A,,Overcast,200,2013-06-25 18:30:00
11:00 PM,69.8,62.6,78,30.04,6.2,SSW,6.7,-,N/A,Thunderstorm,Overcast,210,2013-06-25 19:00:00
11:30 PM,69.8,62.6,78,30.04,6.2,SW,4.5,-,N/A,Rain-Thunderstorm,Light Rain Showers,230,2013-06-25 19:30:00